Showing default

SAUDISAT 5B, 43833

Orbit data source: Space-Track

SAUDISAT 5B, 43833 is a payload satellite owned by KACST (SA) in SSO that was launched on Fri, 07 Dec 2018 UTC via a CHANG ZHENG 2D launch vehicle from the Jiuquan Satellite Launch Center, China (JSC). Payload-class satellites include a variety of spacecraft equipped with specific instruments for various scientific and technological missions. These include communications satellites like Starlink; space stations such as the ISS; scientific satellites like the Hubble; Earth observation satellites from companies like Planet Labs, Umbra, and HawkEye 360; GPS; miniature CubeSats for education and research; and military/defense satellites.

Loading next visibility...
Identifier
43833, 2018-102C
Orbit
SSO
Country
Flag of UnknownUnknown / SAUD
Related business
Manufacturer
KACST
Mission
Operational Civil Technology
Bus & Motor
SAUDISAT, Unknown motor
Mass
425 kg wet, 425 kg dry
Launch date (UTC)
2018-12-07 (7 years ago)
Launch vehicle
CHANG ZHENG 2D
Launch site
Jiuquan Satellite Launch Center, China (JSC)
Object type
Payload
Rocket body
Debris
Shape & HBR
Box, 1.0 m
Radar Cross Section
2.500 m², Large (>1 m²)

Expand to show TLE details & history
Last TLE update: 9 hours ago

TLE from 9 hours ago
0 SAUDISAT 5B
1 43833U 18102C   25258.34476902  .00007108  00000-0  29160-3 0  9997
2 43833  97.3571 322.8569 0011982  36.1502 324.0543 15.24480535373863
Epoch: 2025-09-15T08:16Z
TLE epoch observation values (Epoch: 2025-09-15T08:16:28.043Z)
Latitude
-0.00005°
Longitude
-155.8107°
Altitude
488.781 km
Speed
7.624 km/s
True Right ascension
21h 31m 25s
True Declination
0° 00' 00"
Sunlit
Object was in full shadow at epoch
Visualization orbit readout
Latitude
Unknown
Longitude
Unknown
Altitude
Unknown
Speed
Unknown
Apparent Right ascension
Unknown
Apparent Declination
Unknown
Sunlit
N/A
Visualization observer readout
Local Sidereal Time
09:26:52
Azimuth
Unknown
Elevation
Unknown
Doppler factor
Unknown
Orbital elements
Apogee altitude
497.532 km
Perigee altitude
481.075 km
Semi-major axis
6,867.44 km
Eccentricity
0.0012
Inclination
97.3571°
RAAN
322.8569°
Arg. of periapsis
36.1502°
True anomaly
323.9736°
Mean anomaly
324.0543°
Eccentric anomaly
324.01396°
Mean motion
3.81374 °/min
Orbital period
94.4 mins
BSTAR
0.0002916
Loading maneuver chart data...
Computing Atmospheric mass density...
Loading historical data...
Loading historical data...
Loading historical data...
Loading historical data...
Loading historical data...
Loading historical data...
Loading historical data...

Documentation

Showing up to 5 results
|